TimeCST,TemperatureF,Dew PointF,Humidity,Sea Level PressureIn,VisibilityMPH,Wind Direction,Wind SpeedMPH,Gust SpeedMPH,PrecipitationIn,Events,Conditions,WindDirDegrees,DateUTC
12:00 AM,69,57,57,29.86,12,East,11.5,,,,Scattered Clouds,100,2014-02-09 06:00:00
12:00 AM,69.8,57.2,64,30.00,-9999.0,East,11.5,24.2,N/A,,Clear,100,2014-02-09 06:00:00
1:00 AM,68.0,57.2,68,29.99,-9999.0,East,11.5,23.0,N/A,,Clear,100,2014-02-09 07:00:00
2:00 AM,68.0,57.2,68,29.97,-9999.0,East,9.2,-,N/A,,Clear,80,2014-02-09 08:00:00
3:00 AM,69,56,55,29.82,12,East,12.7,,,,Scattered Clouds,80,2014-02-09 09:00:00
3:00 AM,68.0,57.2,68,29.96,-9999.0,East,12.7,24.2,N/A,,Clear,80,2014-02-09 09:00:00
4:00 AM,68.0,57.2,68,29.97,-9999.0,East,10.4,-,N/A,,Clear,90,2014-02-09 10:00:00
5:00 AM,68.0,55.4,64,29.98,-9999.0,ESE,8.1,-,N/A,,Clear,120,2014-02-09 11:00:00
6:00 AM,67,57,62,29.91,12,ESE,11.5,,,,Scattered Clouds,120,2014-02-09 12:00:00
6:00 AM,68.0,57.2,68,29.98,6.2,ESE,11.5,-,N/A,,Partly Cloudy,120,2014-02-09 12:00:00
7:00 AM,68.0,57.2,68,30.00,6.2,ESE,17.3,-,N/A,,Partly Cloudy,120,2014-02-09 13:00:00
8:00 AM,73.4,57.2,57,30.01,6.2,ESE,13.8,25.3,N/A,,Partly Cloudy,110,2014-02-09 14:00:00
9:00 AM,76,55,38,29.87,12,East,16.1,,,,Scattered Clouds,90,2014-02-09 15:00:00
9:00 AM,77.0,55.4,47,30.01,6.2,East,16.1,28.8,N/A,,Partly Cloudy,90,2014-02-09 15:00:00
10:00 AM,78.8,53.6,42,30.02,6.2,East,18.4,29.9,N/A,,Partly Cloudy,80,2014-02-09 16:00:00
11:00 AM,80.6,55.4,42,29.98,6.2,East,12.7,25.3,N/A,,Partly Cloudy,80,2014-02-09 17:00:00
12:00 PM,80,55,32,29.83,12,East,12.7,,,,Scattered Clouds,80,2014-02-09 18:00:00
1:00 PM,78.8,57.2,47,29.97,6.2,ESE,16.1,27.6,N/A,,Partly Cloudy,120,2014-02-09 19:00:00
2:00 PM,80.6,51.8,37,29.93,6.2,East,16.1,29.9,N/A,,Partly Cloudy,90,2014-02-09 20:00:00
3:00 PM,79,57,36,29.78,12,ESE,16.1,,,,Scattered Clouds,110,2014-02-09 21:00:00
3:00 PM,78.8,57.2,47,29.93,6.2,ESE,16.1,27.6,N/A,,Mostly Cloudy,110,2014-02-09 21:00:00
4:00 PM,77.0,57.2,50,29.92,6.2,ESE,13.8,25.3,N/A,,Scattered Clouds,110,2014-02-09 22:00:00
5:00 PM,75.2,53.6,47,29.93,6.2,ESE,11.5,23.0,N/A,,Scattered Clouds,110,2014-02-09 23:00:00
6:00 PM,72,55,44,29.83,12,ESE,19.6,,,,Partly Cloudy,110,2014-02-10 00:00:00
6:00 PM,71.6,55.4,57,29.95,-9999.0,ESE,19.6,-,N/A,,Clear,110,2014-02-10 00:00:00
7:00 PM,71.6,55.4,57,29.97,-9999.0,East,17.3,-,N/A,,Clear,100,2014-02-10 01:00:00
8:00 PM,71.6,55.4,57,29.98,-9999.0,East,18.4,-,N/A,,Clear,90,2014-02-10 02:00:00
9:00 PM,70,57,55,29.86,12,East,11.5,,,,,100,2014-02-10 03:00:00
9:00 PM,69.8,57.2,64,30.00,-9999.0,East,11.5,-,N/A,,Clear,100,2014-02-10 03:00:00
10:00 PM,69.8,59.0,68,29.99,-9999.0,ESE,11.5,-,N/A,,Clear,110,2014-02-10 04:00:00
11:00 PM,69.8,57.2,64,29.98,6.2,ESE,10.4,-,N/A,,Partly Cloudy,110,2014-02-10 05:00:00